User: anonymous
Location: UBC Liquid-Mirror Observatory
(49.2876°N, 122.5728°W)
Time: 21:13:23
(UTC-07:00)
Language:

Cosmos 1315 - Orbit

View from above orbital plane
View from above orbital plane
View from above satellite
View from above satellite

Ground track
Ground track

The orbit data is extracted from the following two-line orbital elements,

1 12903U 81103A   14207.80096323  .00011019  00000-0  20176-3 0  2256
2 12903 081.1350 101.1289 0005516 127.2253 296.0683 15.49169866796445
Epoch (UTC): 26 July 2014 19:13:23
Eccentricity: 0.0005516
inclination: 81.1350°
perigee height: 415 km
apogee height: 423 km
right ascension of ascending node: 101.1289°
argument of perigee: 127.2253°
revolutions per day: 15.49169866
mean anomaly at epoch: 296.0683°
orbit number at epoch: 79644

The dashed part of the orbit path shows where the satellite is in the earth's shadow,  

DLR